Regional Weather Roundup
Issued by NWS Little Rock, AR

Home | Current Version | Previous Version | Text Only | Print | Product List | Glossary On
Versions: 1 2 3 4 5 6 7 8 9 10 11 12 13 14 15 16 17 18 19 20 21 22 23 24 25 26 27 28 29 30 31 32 33 34 35 36 37 38 39 40 41 42 43 44 45 46 47 48 49 50
000
ASUS44 KLZK 231105
RWRLZK

WEATHER ROUNDUP FOR ARKANSAS
NATIONAL WEATHER SERVICE LITTLE ROCK AR
600 AM CDT THU MAR 23 2017

NOTE: "FAIR" INDICATES FEW OR NO CLOUDS BELOW 12,000 FEET WITH NO
SIGNIFICANT WEATHER AND/OR OBSTRUCTIONS TO VISIBILITY.

ARZ001-003-010-029-231200-
NORTHWEST ARKANSAS

CITY           SKY/WX    TMP DP  RH WIND       PRES   REMARKS
FAYETTEVILLE   CLEAR     49  39  68 E5        30.12F
FORT SMITH     CLEAR     49  35  58 E9        30.15S
HARRISON       CLOUDY    45  32  60 SE14      30.19S
BENTONVILLE    CLEAR     50  36  57 SE9       30.13S
ROGERS         CLEAR     49  37  63 SE10      30.13S
SILOAM SPGS    CLEAR     52  37  58 E5        30.11R
HIGHFILL       CLEAR     51  38  60 SE9       30.12S
SPRINGDALE     MOCLDY    50  36  57 E7        30.14
$$

ARZ004-005-016-231200-
NORTH CENTRAL ARKANSAS

CITY           SKY/WX    TMP DP  RH WIND       PRES   REMARKS
BATESVILLE     CLOUDY    46  36  66 CALM      30.26R
FLIPPIN        CLOUDY    46  28  49 E5        30.20F
MTN HOME       CLOUDY    46  28  49 SE8       30.21F
$$

ARZ040-041-231200-
WEST CENTRAL ARKANSAS

CITY           SKY/WX    TMP DP  RH WIND       PRES   REMARKS
MENA           PTCLDY    46  46 100 CALM      30.16S
MOUNT IDA      PTCLDY    46  41  82 CALM      30.15S
$$

ARZ009-017-025-026-028-231200-
NORTHEAST ARKANSAS

CITY           SKY/WX    TMP DP  RH WIND       PRES   REMARKS
CORNING        CLOUDY    46  36  66 NE5       30.28R
JONESBORO      CLOUDY    48  35  60 NE9       30.26R
NEWPORT        MOCLDY    47  40  76 MISG      30.26
WALNUT RIDGE   CLOUDY    46  34  61 NE6       30.27R
BLYTHEVILLE    MOCLDY    45  36  70 E5        30.28R
$$

ARZ022-023-033-042-044-231200-
CENTRAL ARKANSAS

CITY           SKY/WX    TMP DP  RH WIND       PRES   REMARKS
LITTLE ROCK    CLEAR     45  39  79 NE7       30.22R
CONWAY           N/A     50  39  66 NE5       30.21R
SEARCY         CLEAR     47  36  65 NE7       30.25S
HOT SPRINGS    PTCLDY    50  38  63 E7        30.19S
RUSSELLVILLE   MOCLDY    50  32  50 VRB5      30.20S
CLINTON        CLOUDY    48  41  76 CALM      30.24S
$$

ARZ036-231200-
EAST ARKANSAS

CITY           SKY/WX    TMP DP  RH WIND       PRES   REMARKS
WEST MEMPHIS   CLOUDY    50  29  44 E6        30.24R
$$

ARZ050-053-066-070-073-231200-
SOUTHWEST ARKANSAS

CITY           SKY/WX    TMP DP  RH WIND       PRES   REMARKS
ARKADELPHIA    FAIR      49  41  74 NE6       30.19R
CAMDEN         CLEAR     48  41  76 CALM      30.18R
TEXARKANA      MOCLDY    52  48  86 E6        30.15R
EL DORADO      PTCLDY    52  48  86 NE5       30.17R
DE QUEEN       MOCLDY    52  44  74 E7        30.13S
$$

ARZ056-057-069-231200-
SOUTHEAST ARKANSAS

CITY           SKY/WX    TMP DP  RH WIND       PRES   REMARKS
PINE BLUFF     CLEAR     49  39  68 E6        30.20S
STUTTGART      CLEAR     48  32  53 E6        30.23R
MONTICELLO     CLEAR     51  43  74 E5        30.19S

$$





USA.gov is the U.S. government's official web portal to all federal, state and local government web resources and services.